SAS92A EKCH-ENZV

Flight info

Callsign SAS92A
Flight time N/A
Altitude 32000
Route GOLGA T505 ASLID DCT RIVEX
Aircraft A20N/M-SDE3FGIJ1RWXY/ALB1

Departure

Time N/A
Airport Copenhagen Kastrup Airport (EKCH)

Arrival

Time 2026-05-03 20:17
Airport Stavanger Airport, Sola (ENZV)
Time Latitude Longitude Altitude Speed Heading
2026-05-03 20:15 58.81840 5.64905 1157 ft 130 kts 332°
2026-05-03 20:15 58.82663 5.64206 929 ft 129 kts 344°
2026-05-03 20:15 58.83547 5.63949 807 ft 133 kts 354°
2026-05-03 20:15 58.84481 5.63903 651 ft 132 kts 356°
2026-05-03 20:16 58.85388 5.63893 429 ft 131 kts 356°
2026-05-03 20:16 58.86306 5.63841 270 ft 133 kts 354°
2026-05-03 20:16 58.87219 5.63807 56 ft 130 kts 355°
2026-05-03 20:16 58.88018 5.63762 32 ft 95 kts 358°
2026-05-03 20:17 58.88448 5.63755 30 ft 29 kts 360°
2026-05-03 20:17 58.88582 5.63754 29 ft 15 kts 359°
2026-05-03 20:17 58.88680 5.63736 28 ft 11 kts 339°
2026-05-03 20:17 58.88708 5.63612 28 ft 11 kts 271°
2026-05-03 20:18 58.88706 5.63473 29 ft 11 kts 256°
2026-05-03 20:18 58.88627 5.63415 31 ft 15 kts 181°
2026-05-03 20:18 58.88510 5.63422 31 ft 18 kts 178°
2026-05-03 20:18 58.88392 5.63428 31 ft 18 kts 179°
2026-05-03 20:19 58.88265 5.63433 31 ft 19 kts 180°
2026-05-03 20:19 58.88131 5.63435 30 ft 16 kts 177°
2026-05-03 20:19 58.88044 5.63439 30 ft 10 kts 182°
2026-05-03 20:19 58.88001 5.63378 31 ft 8 kts 248°
2026-05-03 20:20 58.88026 5.63245 29 ft 10 kts 305°
2026-05-03 20:20 58.88041 5.63140 28 ft 9 kts 249°
2026-05-03 20:20 58.88049 5.63046 27 ft 9 kts 312°
2026-05-03 20:20 58.88081 5.62983 25 ft 3 kts 315°
2026-05-03 20:21 58.88084 5.62977 25 ft 0 kts 315°